2022/01/18 23:41:47+0000,-38.88,-49.82,-32.64,-52.60,-51.41,-54.52
2022/01/18 23:42:39+0000,-38.79,-48.93,-32.12,-52.05,-51.57,-54.12
2022/01/18 23:43:31+0000,-39.63,-47.70,-32.45,-50.43,-50.98,-54.88
2022/01/18 23:44:23+0000,-39.46,-49.13,-32.34,-52.10,-51.08,-53.87
2022/01/18 23:45:15+0000,-39.65,-49.25,-32.13,-51.14,-50.85,-54.66
2022/01/18 23:46:07+0000,-39.77,-48.04,-33.06,-51.72,-51.21,-54.99
2022/01/18 23:46:59+0000,-39.74,-49.16,-32.19,-50.17,-50.71,-54.82
2022/01/18 23:47:51+0000,-39.92,-48.79,-31.92,-53.99,-50.23,-55.42
2022/01/18 23:48:43+0000,-39.98,-48.76,-32.35,-50.59,-51.26,-54.53
2022/01/18 23:49:36+0000,-39.12,-48.78,-32.31,-55.31,-51.92,-55.24
2022/01/18 23:50:28+0000,-39.82,-47.48,-31.66,-50.75,-51.28,-54.67
2022/01/18 23:51:26+0000,-39.96,-47.86,-31.99,-51.57,-52.06,-54.37
2022/01/18 23:52:18+0000,-40.60,-48.34,-31.77,-51.21,-50.37,-54.35
2022/01/18 23:53:10+0000,-39.46,-48.24,-31.59,-51.34,-51.65,-54.41
2022/01/18 23:54:02+0000,-39.74,-48.46,-32.25,-51.89,-51.16,-54.83
2022/01/18 23:54:54+0000,-39.83,-48.72,-32.42,-52.89,-51.14,-54.63
2022/01/18 23:55:46+0000,-40.00,-48.10,-32.20,-51.12,-50.72,-54.37
2022/01/18 23:56:38+0000,-40.35,-48.61,-31.77,-51.38,-51.06,-54.21
2022/01/18 23:57:30+0000,-40.09,-48.00,-32.09,-48.68,-51.13,-54.98
2022/01/18 23:58:22+0000,-39.46,-48.58,-32.38,-52.70,-51.26,-54.93
2022/01/18 23:59:14+0000,-39.34,-48.48,-32.37,-51.79,-51.35,-54.53
2022/01/19 00:00:06+0000,-39.88,-48.88,-32.25,-55.26,-51.22,-54.66
2022/01/19 00:01:12+0000,-38.72,-48.22,-31.59,-51.82,-51.23,-55.33
2022/01/19 00:02:04+0000,-39.25,-48.52,-31.89,-54.94,-51.17,-54.34
2022/01/19 00:02:56+0000,-38.84,-48.50,-32.17,-49.64,-51.77,-54.54
2022/01/19 00:03:48+0000,-38.24,-47.29,-32.03,-55.14,-50.39,-54.63
2022/01/19 00:04:40+0000,-40.04,-47.50,-32.20,-51.34,-52.27,-54.59
2022/01/19 00:05:32+0000,-39.04,-46.77,-32.26,-53.63,-50.90,-54.45
2022/01/19 00:06:24+0000,-37.80,-47.16,-32.09,-49.78,-51.71,-54.73
2022/01/19 00:07:16+0000,-38.30,-47.86,-32.51,-52.53,-50.58,-55.49
2022/01/19 00:08:08+0000,-40.09,-47.54,-32.39,-52.04,-51.47,-54.04
2022/01/19 00:09:00+0000,-39.86,-44.41,-32.40,-49.47,-50.62,-55.04
2022/01/19 00:09:52+0000,-39.75,-45.34,-31.91,-50.04,-51.09,-55.55
2022/01/19 00:10:45+0000,-39.54,-47.36,-32.37,-51.16,-51.97,-55.23
2022/01/19 00:11:43+0000,-39.41,-47.33,-32.19,-51.05,-50.81,-55.32
2022/01/19 00:12:35+0000,-39.56,-48.20,-32.51,-50.78,-50.67,-55.30
2022/01/19 00:13:27+0000,-39.64,-47.58,-32.21,-48.40,-51.29,-54.60
2022/01/19 00:14:19+0000,-39.49,-48.20,-32.47,-55.25,-50.65,-54.97
2022/01/19 00:15:11+0000,-40.02,-47.57,-32.50,-49.40,-49.85,-55.29
2022/01/19 00:16:03+0000,-39.40,-48.71,-31.94,-54.86,-50.90,-54.48
2022/01/19 00:16:55+0000,-40.81,-47.97,-32.22,-49.42,-51.11,-54.98
2022/01/19 00:17:47+0000,-40.59,-47.19,-32.43,-52.65,-51.23,-55.00
2022/01/19 00:18:39+0000,-39.46,-46.60,-31.96,-50.09,-51.17,-55.16
2022/01/19 00:19:31+0000,-39.63,-47.64,-32.54,-46.01,-51.22,-54.72
2022/01/19 00:20:24+0000,-39.65,-48.11,-31.84,-51.42,-50.94,-54.74
2022/01/19 00:21:24+0000,-39.59,-47.89,-32.11,-51.98,-50.43,-54.92
2022/01/19 00:22:16+0000,-40.01,-47.54,-32.43,-50.02,-51.60,-54.79
2022/01/19 00:23:08+0000,-40.00,-47.01,-32.42,-51.92,-51.25,-54.41
2022/01/19 00:24:00+0000,-39.86,-47.76,-31.18,-51.15,-51.82,-54.54
2022/01/19 00:24:52+0000,-39.88,-48.48,-31.99,-50.43,-50.49,-54.47
2022/01/19 00:25:44+0000,-39.61,-47.95,-32.32,-51.22,-51.09,-54.94
2022/01/19 00:26:36+0000,-39.96,-47.34,-31.74,-52.92,-52.43,-54.88
2022/01/19 00:27:28+0000,-38.58,-47.30,-31.78,-52.23,-51.39,-54.62
2022/01/19 00:28:20+0000,-38.38,-46.59,-32.23,-55.73,-50.06,-54.43
2022/01/19 00:29:12+0000,-38.68,-46.83,-32.28,-52.67,-51.13,-55.16
2022/01/19 00:30:05+0000,-38.85,-45.41,-32.39,-55.91,-51.44,-54.64
2022/01/19 00:31:03+0000,-39.06,-46.11,-31.97,-53.74,-51.86,-53.82
2022/01/19 00:31:55+0000,-39.27,-47.27,-32.25,-49.37,-51.08,-54.40
2022/01/19 00:32:47+0000,-39.02,-48.30,-31.85,-52.08,-51.30,-55.49
2022/01/19 00:33:39+0000,-38.66,-48.65,-33.22,-49.65,-51.66,-55.17
2022/01/19 00:34:31+0000,-39.26,-48.31,-32.58,-52.19,-51.75,-54.92
2022/01/19 00:35:24+0000,-38.28,-49.24,-32.87,-52.50,-51.46,-56.12
2022/01/19 00:36:16+0000,-38.79,-48.45,-32.28,-50.55,-51.40,-54.35
2022/01/19 00:37:08+0000,-39.63,-50.13,-31.98,-50.64,-51.55,-55.63
2022/01/19 00:38:00+0000,-39.29,-47.86,-32.09,-51.94,-51.77,-54.85
2022/01/19 00:38:52+0000,-38.62,-50.45,-32.29,-52.68,-51.11,-54.92
2022/01/19 00:39:44+0000,-39.94,-49.07,-32.77,-51.08,-50.51,-54.93
2022/01/19 00:40:36+0000,-38.10,-47.88,-31.84,-50.88,-52.20,-55.25
2022/01/19 00:41:34+0000,-38.63,-47.92,-32.08,-55.95,-52.45,-55.07
2022/01/19 00:42:26+0000,-39.85,-48.12,-32.39,-54.24,-52.32,-55.36
2022/01/19 00:43:18+0000,-39.30,-49.24,-32.48,-52.08,-52.49,-55.40
2022/01/19 00:44:10+0000,-39.24,-47.79,-31.99,-52.19,-52.74,-55.31
2022/01/19 00:45:02+0000,-39.98,-47.71,-32.23,-50.16,-52.01,-55.24
2022/01/19 00:45:54+0000,-39.49,-47.88,-31.63,-53.58,-51.64,-55.18
2022/01/19 00:46:46+0000,-38.89,-48.84,-32.05,-51.17,-52.02,-54.75
2022/01/19 00:47:38+0000,-39.29,-50.13,-31.43,-50.85,-51.71,-54.84
2022/01/19 00:48:30+0000,-39.92,-47.55,-32.32,-52.74,-51.97,-54.69
2022/01/19 00:49:22+0000,-38.59,-50.07,-32.40,-53.42,-51.96,-55.43
2022/01/19 00:50:14+0000,-39.78,-46.44,-31.88,-49.70,-51.50,-55.20
2022/01/19 00:51:13+0000,-39.66,-46.17,-31.93,-50.52,-51.62,-54.86
2022/01/19 00:52:05+0000,-39.94,-48.24,-31.67,-54.53,-52.59,-55.23
2022/01/19 00:52:57+0000,-40.08,-49.09,-31.88,-52.50,-52.14,-55.47
2022/01/19 00:53:49+0000,-40.06,-46.63,-31.94,-49.51,-52.03,-55.00
2022/01/19 00:54:41+0000,-40.36,-48.21,-32.10,-45.96,-51.97,-55.29
2022/01/19 00:55:33+0000,-40.45,-47.94,-32.31,-50.08,-51.67,-55.55
2022/01/19 00:56:25+0000,-38.34,-48.12,-32.52,-51.70,-52.64,-55.32
2022/01/19 00:57:17+0000,-37.50,-47.18,-32.08,-50.58,-51.99,-55.04
2022/01/19 00:58:09+0000,-38.14,-49.87,-31.93,-50.41,-52.36,-55.96
2022/01/19 00:59:01+0000,-37.96,-46.90,-31.53,-49.25,-52.02,-55.55
2022/01/19 00:59:53+0000,-38.81,-50.82,-32.34,-48.96,-52.41,-55.50
2022/01/19 01:00:45+0000,-39.18,-48.17,-32.95,-45.63,-52.39,-55.20
2022/01/19 01:01:45+0000,-39.87,-47.48,-32.15,-49.69,-51.75,-55.36
2022/01/19 01:02:37+0000,-37.64,-48.70,-32.43,-49.36,-51.65,-55.66
2022/01/19 01:03:29+0000,-38.92,-46.92,-31.89,-50.98,-52.06,-56.30
2022/01/19 01:04:21+0000,-39.03,-50.99,-31.90,-51.93,-52.50,-55.86
2022/01/19 01:05:13+0000,-40.35,-48.63,-32.36,-44.41,-52.11,-55.09
2022/01/19 01:06:05+0000,-39.31,-50.61,-32.30,-46.98,-52.35,-56.00
2022/01/19 01:06:57+0000,-38.74,-48.81,-31.97,-49.20,-52.04,-55.84
2022/01/19 01:07:49+0000,-38.25,-47.80,-31.99,-54.78,-52.01,-55.61
2022/01/19 01:08:41+0000,-38.63,-46.54,-32.16,-42.56,-52.67,-56.20
2022/01/19 01:09:33+0000,-38.61,-48.63,-31.73,-54.51,-52.19,-54.78
2022/01/19 01:10:25+0000,-37.79,-47.55,-31.36,-52.45,-52.47,-55.98
2022/01/19 01:11:24+0000,-39.11,-47.25,-32.31,-50.47,-51.87,-55.60
2022/01/19 01:12:16+0000,-37.46,-47.74,-31.95,-47.88,-52.37,-55.87
2022/01/19 01:13:08+0000,-37.74,-48.60,-32.18,-46.76,-52.40,-56.00
2022/01/19 01:14:00+0000,-37.15,-46.74,-32.14,-51.04,-51.87,-55.91
2022/01/19 01:14:52+0000,-38.33,-49.85,-31.24,-51.44,-52.03,-55.82
2022/01/19 01:15:44+0000,-37.33,-48.13,-31.52,-46.04,-51.62,-56.12
2022/01/19 01:16:36+0000,-37.88,-50.09,-32.22,-52.35,-52.15,-55.88
2022/01/19 01:17:28+0000,-38.12,-47.30,-31.67,-48.97,-52.37,-56.38
2022/01/19 01:18:20+0000,-39.65,-48.51,-31.74,-50.91,-51.74,-55.61
2022/01/19 01:19:12+0000,-37.53,-45.78,-32.46,-46.32,-51.54,-56.23
2022/01/19 01:20:04+0000,-37.32,-48.32,-31.79,-54.53,-52.41,-55.28
2022/01/19 01:21:05+0000,-38.05,-50.59,-31.76,-44.67,-51.91,-55.81
2022/01/19 01:21:57+0000,-36.93,-47.70,-31.95,-53.70,-51.56,-56.28
2022/01/19 01:22:49+0000,-37.30,-47.12,-31.67,-55.64,-51.32,-55.81
2022/01/19 01:23:41+0000,-37.02,-46.69,-31.27,-49.71,-52.18,-55.50
2022/01/19 01:24:33+0000,-38.57,-47.25,-31.80,-55.91,-51.29,-55.70
2022/01/19 01:25:25+0000,-36.16,-45.68,-32.10,-49.08,-52.21,-55.61
2022/01/19 01:26:17+0000,-38.34,-48.70,-32.25,-51.65,-52.61,-55.92
2022/01/19 01:27:09+0000,-36.81,-47.25,-31.65,-51.86,-51.80,-55.88
2022/01/19 01:28:01+0000,-37.72,-47.79,-31.40,-47.26,-51.98,-55.40
2022/01/19 01:28:54+0000,-37.60,-47.36,-31.88,-50.98,-51.98,-55.31
2022/01/19 01:29:46+0000,-37.13,-46.99,-32.02,-50.31,-52.20,-56.00
2022/01/19 01:30:38+0000,-37.67,-47.54,-32.02,-50.81,-51.08,-55.80
2022/01/19 01:31:41+0000,-38.56,-47.49,-32.56,-50.70,-52.09,-55.90
2022/01/19 01:32:33+0000,-36.71,-47.02,-32.05,-54.24,-51.84,-55.06
2022/01/19 01:33:25+0000,-38.47,-48.31,-31.94,-54.48,-52.18,-55.58
2022/01/19 01:34:17+0000,-37.75,-46.52,-32.05,-50.70,-51.99,-55.39
2022/01/19 01:35:09+0000,-37.83,-45.00,-32.10,-52.07,-52.25,-55.37
2022/01/19 01:36:01+0000,-37.13,-47.31,-31.88,-54.33,-52.14,-55.55
2022/01/19 01:36:53+0000,-38.46,-45.90,-32.19,-54.07,-51.58,-55.48
2022/01/19 01:37:45+0000,-37.93,-45.57,-32.57,-52.18,-51.75,-56.09
2022/01/19 01:38:37+0000,-37.68,-49.54,-31.99,-53.36,-51.89,-55.66
2022/01/19 01:39:29+0000,-37.75,-46.59,-31.47,-50.75,-51.83,-56.19
2022/01/19 01:40:22+0000,-37.58,-50.06,-32.18,-55.34,-51.72,-55.86
2022/01/19 01:41:27+0000,-37.84,-47.17,-31.86,-50.27,-51.71,-55.41
2022/01/19 01:42:19+0000,-38.22,-46.63,-31.92,-55.87,-51.71,-55.65
2022/01/19 01:43:11+0000,-37.82,-45.55,-31.80,-50.68,-51.95,-55.85
2022/01/19 01:44:03+0000,-37.67,-45.83,-31.80,-54.06,-52.11,-56.08
2022/01/19 01:44:55+0000,-36.43,-46.09,-31.82,-53.95,-51.48,-55.93
2022/01/19 01:45:47+0000,-37.02,-46.58,-32.19,-50.66,-52.33,-55.52
2022/01/19 01:46:39+0000,-36.98,-47.13,-31.80,-51.93,-52.19,-55.81
2022/01/19 01:47:31+0000,-38.65,-46.98,-32.10,-50.70,-52.04,-55.80
2022/01/19 01:48:23+0000,-37.45,-50.44,-31.77,-50.43,-52.52,-55.90
2022/01/19 01:49:15+0000,-38.28,-49.07,-31.99,-51.14,-51.37,-56.03
2022/01/19 01:50:07+0000,-39.20,-49.56,-32.07,-53.70,-52.01,-55.94
2022/01/19 01:51:05+0000,-38.89,-46.99,-31.61,-55.38,-51.65,-55.30
2022/01/19 01:51:57+0000,-37.89,-47.02,-31.75,-50.66,-52.31,-55.27
2022/01/19 01:52:50+0000,-37.87,-47.95,-31.51,-55.19,-51.85,-55.73
2022/01/19 01:53:42+0000,-38.17,-47.01,-31.16,-54.20,-52.27,-55.02
2022/01/19 01:54:34+0000,-38.54,-46.73,-31.17,-50.94,-52.21,-55.51
2022/01/19 01:55:26+0000,-39.12,-46.88,-31.92,-50.03,-51.86,-55.07
2022/01/19 01:56:18+0000,-38.14,-47.35,-32.13,-52.50,-51.58,-55.63
2022/01/19 01:57:10+0000,-38.23,-48.70,-31.74,-51.38,-51.78,-55.36
2022/01/19 01:58:02+0000,-39.27,-48.68,-32.56,-49.90,-52.01,-55.27
2022/01/19 01:58:54+0000,-38.02,-48.94,-32.03,-52.88,-51.74,-55.48
2022/01/19 01:59:46+0000,-38.90,-47.93,-32.18,-51.28,-51.94,-55.55
2022/01/19 02:00:38+0000,-39.57,-50.48,-31.82,-51.64,-51.89,-55.88
2022/01/19 02:01:38+0000,-38.73,-48.36,-32.00,-50.65,-51.86,-54.88
2022/01/19 02:02:30+0000,-38.14,-47.55,-32.12,-50.66,-51.50,-55.58
2022/01/19 02:03:22+0000,-38.15,-46.51,-31.93,-50.05,-52.11,-55.92
2022/01/19 02:04:14+0000,-38.84,-47.83,-32.15,-54.10,-52.39,-54.58
2022/01/19 02:05:06+0000,-38.64,-49.50,-32.09,-54.34,-51.76,-54.70
2022/01/19 02:05:59+0000,-38.96,-47.29,-32.03,-50.29,-51.80,-55.06
2022/01/19 02:06:51+0000,-38.21,-50.04,-31.82,-50.47,-52.72,-54.78
2022/01/19 02:07:43+0000,-37.85,-45.52,-31.60,-54.24,-52.26,-54.69
2022/01/19 02:08:35+0000,-37.96,-49.51,-31.74,-54.70,-52.57,-54.19
2022/01/19 02:09:27+0000,-37.74,-46.34,-32.31,-50.07,-51.91,-54.29
2022/01/19 02:10:19+0000,-37.66,-47.11,-33.04,-54.83,-51.94,-54.95
2022/01/19 02:11:22+0000,-38.57,-47.51,-32.02,-50.07,-52.00,-54.45
2022/01/19 02:12:14+0000,-38.78,-46.03,-32.42,-54.50,-51.82,-54.86
2022/01/19 02:13:06+0000,-37.82,-49.58,-32.35,-54.26,-52.05,-55.00
2022/01/19 02:13:58+0000,-37.80,-46.00,-32.70,-50.06,-52.13,-54.68
2022/01/19 02:14:50+0000,-38.77,-49.92,-31.98,-49.98,-51.80,-54.50
2022/01/19 02:15:42+0000,-38.27,-46.62,-32.13,-54.67,-51.36,-55.23
2022/01/19 02:16:34+0000,-38.55,-46.07,-32.21,-54.98,-51.92,-54.82
2022/01/19 02:17:26+0000,-36.71,-46.51,-32.26,-55.09,-52.45,-54.83
2022/01/19 02:18:18+0000,-38.75,-45.86,-31.80,-55.31,-51.57,-54.62
2022/01/19 02:19:11+0000,-36.98,-47.14,-32.23,-54.64,-52.08,-55.14
2022/01/19 02:20:03+0000,-38.02,-46.80,-31.75,-55.14,-52.32,-54.20
2022/01/19 02:21:06+0000,-37.32,-49.60,-33.08,-55.20,-52.14,-54.65
2022/01/19 02:21:58+0000,-40.26,-46.29,-32.36,-51.06,-52.12,-54.54
2022/01/19 02:22:50+0000,-40.20,-49.41,-32.19,-51.19,-52.17,-55.16
2022/01/19 02:23:42+0000,-39.51,-45.82,-31.75,-55.01,-52.07,-54.32
2022/01/19 02:24:34+0000,-39.41,-45.35,-31.84,-55.07,-52.58,-54.64
2022/01/19 02:25:26+0000,-38.54,-47.57,-32.37,-50.80,-51.80,-54.75
2022/01/19 02:26:19+0000,-38.82,-46.74,-31.81,-55.18,-52.31,-54.66
2022/01/19 02:27:11+0000,-38.85,-48.12,-32.35,-55.57,-52.81,-54.31
2022/01/19 02:28:03+0000,-37.28,-45.54,-32.38,-51.17,-52.27,-55.30
2022/01/19 02:28:55+0000,-38.72,-45.26,-32.26,-51.55,-52.42,-54.98
2022/01/19 02:29:47+0000,-38.23,-48.05,-32.21,-55.22,-52.50,-54.65
2022/01/19 02:30:39+0000,-37.03,-48.05,-31.68,-55.24,-52.47,-54.55
2022/01/19 02:31:38+0000,-37.96,-47.78,-32.16,-55.61,-51.80,-54.85
2022/01/19 02:32:30+0000,-40.13,-45.02,-31.40,-55.60,-51.85,-54.65
2022/01/19 02:33:22+0000,-37.60,-48.01,-32.31,-55.30,-52.09,-53.85
2022/01/19 02:34:14+0000,-40.29,-45.63,-32.24,-55.38,-52.15,-54.28
2022/01/19 02:35:06+0000,-38.17,-47.21,-32.49,-55.70,-52.51,-54.65
2022/01/19 02:35:58+0000,-33.87,-46.80,-32.53,-55.44,-51.79,-54.63
2022/01/19 02:36:50+0000,-33.28,-45.55,-33.17,-55.33,-52.59,-54.19
2022/01/19 02:37:42+0000,-37.25,-45.06,-32.02,-55.48,-52.04,-54.25
2022/01/19 02:38:34+0000,-39.09,-46.93,-32.19,-55.18,-52.50,-54.36
2022/01/19 02:39:26+0000,-37.09,-47.69,-32.14,-55.45,-52.52,-54.25
2022/01/19 02:40:18+0000,-38.80,-45.84,-32.64,-55.63,-52.56,-53.81
2022/01/19 02:41:26+0000,-38.98,-47.12,-32.91,-55.52,-52.36,-54.22
2022/01/19 02:42:18+0000,-39.13,-47.53,-32.29,-55.14,-52.35,-55.21
2022/01/19 02:43:10+0000,-39.13,-47.06,-31.89,-55.99,-52.84,-54.70
2022/01/19 02:44:02+0000,-37.99,-46.62,-32.22,-55.62,-52.56,-54.59
2022/01/19 02:44:54+0000,-38.26,-46.85,-32.26,-55.51,-53.41,-54.44
2022/01/19 02:45:47+0000,-38.71,-46.69,-32.38,-55.62,-52.74,-54.61
2022/01/19 02:46:39+0000,-37.42,-46.53,-32.34,-55.83,-52.25,-54.30
2022/01/19 02:47:31+0000,-39.36,-46.57,-31.93,-54.87,-53.20,-55.00
2022/01/19 02:48:23+0000,-38.14,-48.53,-32.07,-55.80,-53.01,-54.30
2022/01/19 02:49:15+0000,-38.36,-46.15,-32.03,-55.45,-52.75,-54.96
2022/01/19 02:50:07+0000,-38.93,-48.35,-32.71,-55.58,-53.67,-54.15
2022/01/19 02:51:06+0000,-37.63,-46.47,-32.49,-55.16,-52.90,-54.05
2022/01/19 02:51:58+0000,-39.20,-45.57,-32.51,-55.84,-53.23,-54.81
2022/01/19 02:52:50+0000,-37.82,-45.73,-32.88,-55.29,-52.86,-54.08
2022/01/19 02:53:42+0000,-38.51,-45.18,-32.86,-56.09,-52.86,-54.93
2022/01/19 02:54:34+0000,-38.20,-45.94,-32.46,-55.85,-53.68,-54.64
2022/01/19 02:55:26+0000,-38.47,-46.63,-32.04,-55.41,-53.39,-54.32
2022/01/19 02:56:18+0000,-38.95,-47.96,-32.49,-55.22,-53.34,-53.90
2022/01/19 02:57:10+0000,-38.68,-47.54,-33.00,-55.62,-53.17,-54.96
2022/01/19 02:58:02+0000,-40.09,-47.47,-32.42,-55.37,-53.32,-53.76
2022/01/19 02:58:54+0000,-36.65,-46.89,-33.06,-54.94,-52.95,-54.55
2022/01/19 02:59:46+0000,-39.66,-47.56,-32.64,-55.91,-52.76,-54.57
2022/01/19 03:00:39+0000,-38.90,-48.65,-32.65,-56.04,-53.00,-54.39
2022/01/19 03:01:49+0000,-37.03,-47.36,-32.42,-55.37,-52.95,-53.77
2022/01/19 03:02:41+0000,-36.69,-47.50,-33.06,-55.97,-53.57,-54.36
2022/01/19 03:03:33+0000,-37.20,-47.20,-32.91,-55.30,-53.37,-54.15
2022/01/19 03:04:25+0000,-37.99,-47.37,-32.36,-55.88,-52.56,-54.50
2022/01/19 03:05:17+0000,-38.00,-46.11,-32.17,-55.72,-52.43,-54.08
2022/01/19 03:06:09+0000,-39.25,-47.73,-33.23,-55.91,-52.99,-54.27
2022/01/19 03:07:01+0000,-38.73,-47.55,-32.74,-55.86,-52.84,-53.99
2022/01/19 03:07:53+0000,-38.20,-47.53,-33.18,-55.43,-52.84,-53.74
2022/01/19 03:08:45+0000,-39.35,-46.65,-32.77,-55.40,-53.17,-53.92
2022/01/19 03:09:38+0000,-38.16,-47.69,-32.58,-55.40,-53.25,-54.69
2022/01/19 03:10:30+0000,-39.77,-47.28,-33.08,-55.24,-53.19,-54.82
2022/01/19 03:11:28+0000,-37.71,-49.09,-32.84,-55.49,-53.30,-54.55
2022/01/19 03:12:20+0000,-38.13,-50.66,-33.39,-55.48,-53.61,-54.54
2022/01/19 03:13:12+0000,-38.53,-49.03,-32.06,-55.10,-53.20,-55.06
2022/01/19 03:14:04+0000,-40.00,-48.58,-33.00,-55.12,-53.32,-54.09
2022/01/19 03:14:56+0000,-37.59,-49.40,-32.91,-55.35,-53.15,-54.30
2022/01/19 03:15:48+0000,-38.23,-48.94,-33.08,-55.03,-52.60,-54.11
2022/01/19 03:16:40+0000,-38.94,-47.97,-32.32,-55.30,-52.23,-54.79
2022/01/19 03:17:32+0000,-39.55,-49.07,-32.85,-55.33,-53.16,-54.77
2022/01/19 03:18:24+0000,-37.43,-49.37,-32.79,-55.61,-52.68,-54.57
2022/01/19 03:19:16+0000,-38.12,-47.40,-33.06,-55.26,-53.57,-54.37
2022/01/19 03:20:09+0000,-37.82,-48.59,-33.00,-55.76,-52.88,-55.25
2022/01/19 03:21:09+0000,-38.65,-49.27,-32.83,-55.70,-53.27,-54.13
2022/01/19 03:22:01+0000,-37.83,-48.38,-32.92,-55.53,-53.05,-54.29
2022/01/19 03:22:53+0000,-38.66,-49.25,-33.13,-54.77,-52.92,-54.58
2022/01/19 03:23:45+0000,-40.10,-48.89,-32.63,-55.56,-52.95,-54.71
2022/01/19 03:24:37+0000,-37.46,-50.24,-32.46,-55.10,-52.33,-54.37
2022/01/19 03:25:29+0000,-40.89,-48.84,-32.91,-55.34,-52.99,-54.18
2022/01/19 03:26:21+0000,-38.32,-50.82,-32.82,-54.42,-53.16,-54.16
2022/01/19 03:27:13+0000,-38.38,-49.15,-31.96,-55.13,-52.55,-54.48
2022/01/19 03:28:05+0000,-38.00,-49.76,-32.71,-55.20,-52.96,-54.86
2022/01/19 03:28:57+0000,-38.44,-49.83,-32.48,-55.31,-52.77,-54.92
2022/01/19 03:29:50+0000,-38.35,-49.73,-32.49,-55.48,-52.83,-54.14
2022/01/19 03:30:42+0000,-38.91,-49.50,-32.56,-55.72,-52.81,-55.19
2022/01/19 03:31:40+0000,-37.25,-49.74,-32.48,-55.49,-52.71,-54.81
2022/01/19 03:32:32+0000,-36.50,-46.67,-32.75,-55.58,-52.45,-54.79
2022/01/19 03:33:24+0000,-38.86,-46.14,-32.22,-55.62,-52.59,-54.29
2022/01/19 03:34:16+0000,-38.24,-49.08,-32.63,-55.79,-52.44,-55.17
2022/01/19 03:35:08+0000,-36.90,-49.64,-32.60,-55.37,-52.24,-55.34
2022/01/19 03:36:00+0000,-39.43,-49.33,-32.58,-55.99,-52.12,-54.22
2022/01/19 03:36:52+0000,-38.01,-49.37,-32.37,-55.19,-52.73,-54.43
2022/01/19 03:37:44+0000,-37.71,-48.55,-31.89,-55.75,-53.17,-54.20
2022/01/19 03:38:36+0000,-36.90,-50.83,-32.62,-56.00,-52.12,-53.69
2022/01/19 03:39:28+0000,-37.58,-48.42,-32.12,-55.34,-52.62,-54.31
2022/01/19 03:40:21+0000,-38.28,-47.78,-32.58,-55.17,-52.54,-54.67
2022/01/19 03:41:24+0000,-37.97,-49.39,-31.81,-55.34,-52.65,-54.56
2022/01/19 03:42:16+0000,-40.27,-48.50,-32.29,-55.04,-52.40,-54.22
2022/01/19 03:43:08+0000,-37.12,-49.31,-32.51,-55.44,-52.39,-54.75
2022/01/19 03:44:00+0000,-39.83,-48.77,-32.35,-55.76,-52.48,-54.40
2022/01/19 03:44:52+0000,-36.76,-49.68,-32.77,-56.18,-52.67,-55.18
2022/01/19 03:45:44+0000,-37.75,-48.57,-32.28,-55.93,-52.35,-55.11
2022/01/19 03:46:36+0000,-38.14,-49.87,-32.48,-54.94,-52.24,-54.83
2022/01/19 03:47:28+0000,-35.57,-48.09,-32.50,-55.44,-52.38,-54.47
2022/01/19 03:48:20+0000,-35.54,-47.79,-32.39,-55.76,-52.26,-55.36
2022/01/19 03:49:12+0000,-38.30,-48.32,-32.42,-54.81,-52.92,-54.21
2022/01/19 03:50:05+0000,-38.15,-48.09,-32.36,-54.74,-53.36,-54.28
2022/01/19 03:51:03+0000,-37.82,-47.65,-32.35,-55.20,-52.19,-54.67
2022/01/19 03:51:55+0000,-38.58,-47.52,-32.66,-55.35,-51.98,-52.49
2022/01/19 03:52:47+0000,-38.08,-44.92,-31.65,-53.33,-45.97,-52.86
2022/01/19 03:53:39+0000,-37.52,-45.41,-32.15,-54.01,-46.30,-53.13
2022/01/19 03:54:31+0000,-38.22,-46.30,-32.26,-53.60,-46.06,-52.93
2022/01/19 03:55:23+0000,-34.90,-47.15,-33.06,-54.38,-45.98,-52.90
2022/01/19 03:56:16+0000,-39.55,-46.32,-32.97,-54.42,-46.05,-52.77
2022/01/19 03:57:08+0000,-38.20,-47.45,-32.50,-54.15,-46.32,-52.67
2022/01/19 03:58:00+0000,-37.05,-46.51,-32.91,-54.06,-46.52,-52.69
2022/01/19 03:58:52+0000,-36.80,-47.27,-32.51,-54.15,-46.59,-52.65
2022/01/19 03:59:44+0000,-39.14,-47.00,-32.64,-54.12,-46.71,-52.41
2022/01/19 04:00:36+0000,-38.08,-46.56,-32.70,-54.02,-46.78,-52.41
2022/01/19 04:01:35+0000,-37.29,-47.41,-32.63,-54.38,-47.02,-53.02
2022/01/19 04:02:27+0000,-36.91,-46.90,-32.78,-53.90,-47.18,-52.92
2022/01/19 04:03:19+0000,-35.40,-47.34,-32.52,-54.15,-46.73,-52.95
2022/01/19 04:04:11+0000,-36.39,-46.89,-32.10,-54.26,-46.76,-53.00
2022/01/19 04:05:03+0000,-37.79,-48.25,-32.22,-53.92,-46.88,-53.00
2022/01/19 04:05:55+0000,-36.67,-48.44,-31.69,-53.66,-46.63,-53.01
2022/01/19 04:06:47+0000,-36.08,-47.52,-32.01,-54.34,-46.46,-52.78
2022/01/19 04:07:39+0000,-37.88,-46.49,-31.55,-54.29,-46.71,-53.10
2022/01/19 04:08:31+0000,-37.59,-47.63,-32.52,-54.01,-46.46,-53.32
2022/01/19 04:09:23+0000,-37.13,-48.20,-32.42,-54.03,-45.97,-53.40
2022/01/19 04:10:16+0000,-38.17,-44.78,-32.36,-53.96,-46.72,-52.95
2022/01/19 04:11:20+0000,-36.76,-48.58,-31.93,-54.24,-47.56,-52.88
2022/01/19 04:12:13+0000,-38.10,-45.39,-32.59,-53.92,-46.28,-52.65
2022/01/19 04:13:05+0000,-37.40,-48.63,-32.30,-53.85,-47.48,-53.05
2022/01/19 04:13:57+0000,-39.03,-47.90,-32.60,-53.87,-46.76,-52.32
2022/01/19 04:14:49+0000,-37.81,-45.50,-31.95,-53.21,-46.40,-52.48
2022/01/19 04:15:41+0000,-38.79,-44.61,-32.65,-54.09,-47.44,-52.65
2022/01/19 04:16:33+0000,-37.28,-48.49,-32.00,-53.89,-46.53,-52.69
2022/01/19 04:17:25+0000,-39.25,-48.41,-32.15,-53.70,-47.28,-52.82
2022/01/19 04:18:17+0000,-37.31,-44.89,-32.17,-53.95,-46.16,-52.11
2022/01/19 04:19:09+0000,-38.63,-44.65,-32.02,-54.54,-46.50,-52.42
2022/01/19 04:20:01+0000,-38.16,-47.69,-32.20,-53.50,-46.67,-52.49
2022/01/19 04:20:59+0000,-38.47,-48.26,-32.65,-53.97,-46.26,-52.50
2022/01/19 04:21:51+0000,-38.29,-48.25,-32.13,-54.11,-46.89,-52.73
2022/01/19 04:22:43+0000,-38.87,-45.90,-32.50,-54.62,-46.56,-52.24
2022/01/19 04:23:35+0000,-37.85,-49.61,-31.95,-53.17,-47.34,-52.91
2022/01/19 04:24:27+0000,-40.22,-48.59,-32.56,-54.46,-47.15,-52.69
2022/01/19 04:25:19+0000,-38.13,-48.79,-32.13,-53.97,-46.55,-53.03
2022/01/19 04:26:12+0000,-37.73,-47.50,-32.45,-53.70,-46.95,-53.02
2022/01/19 04:27:04+0000,-38.06,-48.14,-32.68,-54.00,-47.04,-52.60
2022/01/19 04:27:56+0000,-38.74,-48.87,-32.45,-53.76,-47.11,-52.27
2022/01/19 04:28:48+0000,-38.12,-48.19,-32.42,-53.49,-46.70,-51.88
2022/01/19 04:29:40+0000,-37.37,-48.05,-32.53,-54.16,-47.14,-51.90
2022/01/19 04:30:32+0000,-38.13,-48.70,-32.55,-53.65,-46.73,-52.42
2022/01/19 04:31:31+0000,-39.50,-48.46,-32.03,-53.64,-46.82,-52.49
2022/01/19 04:32:23+0000,-39.25,-48.86,-32.70,-53.27,-46.85,-52.61
2022/01/19 04:33:15+0000,-40.15,-48.17,-32.84,-54.06,-46.82,-52.31
2022/01/19 04:34:07+0000,-37.60,-48.38,-32.56,-53.44,-47.54,-52.17
2022/01/19 04:34:59+0000,-38.04,-49.44,-32.89,-53.29,-47.65,-52.30
2022/01/19 04:35:51+0000,-38.29,-48.56,-32.04,-53.56,-47.50,-52.13
2022/01/19 04:36:43+0000,-37.98,-48.60,-32.14,-53.32,-46.91,-52.86
2022/01/19 04:37:35+0000,-37.59,-48.03,-31.88,-53.85,-47.23,-52.21
2022/01/19 04:38:27+0000,-37.24,-48.71,-32.30,-53.06,-47.27,-52.36
2022/01/19 04:39:19+0000,-37.62,-48.97,-32.16,-53.50,-47.54,-52.25
2022/01/19 04:40:11+0000,-38.30,-48.40,-32.54,-53.62,-47.35,-52.58
2022/01/19 04:41:15+0000,-38.40,-48.84,-31.89,-53.46,-47.55,-52.42
2022/01/19 04:42:07+0000,-36.91,-48.41,-32.06,-53.14,-46.59,-52.11
2022/01/19 04:42:59+0000,-36.03,-48.12,-32.79,-53.59,-47.64,-51.95
2022/01/19 04:43:51+0000,-36.05,-48.24,-32.51,-53.69,-47.51,-52.31
2022/01/19 04:44:43+0000,-38.12,-48.73,-32.37,-53.79,-47.14,-52.42
2022/01/19 04:45:35+0000,-36.81,-47.61,-32.59,-53.64,-46.42,-53.14
2022/01/19 04:46:27+0000,-37.33,-48.09,-32.17,-53.61,-47.83,-52.58
2022/01/19 04:47:19+0000,-37.43,-48.45,-32.84,-53.59,-47.06,-53.28
2022/01/19 04:48:11+0000,-37.10,-48.64,-32.47,-53.60,-47.40,-52.63
2022/01/19 04:49:03+0000,-38.10,-47.81,-32.67,-53.20,-46.74,-52.41
2022/01/19 04:49:55+0000,-38.84,-48.09,-32.11,-53.36,-47.02,-52.44
2022/01/19 04:50:47+0000,-37.04,-48.90,-32.66,-53.95,-46.90,-52.56
2022/01/19 04:51:45+0000,-39.63,-48.90,-32.74,-53.43,-46.66,-52.48
2022/01/19 04:52:37+0000,-37.91,-49.30,-31.90,-53.39,-46.68,-52.92
2022/01/19 04:53:29+0000,-37.68,-48.23,-32.03,-53.53,-46.82,-52.81
2022/01/19 04:54:21+0000,-38.25,-48.88,-32.41,-53.43,-47.19,-52.60
2022/01/19 04:55:13+0000,-37.64,-49.14,-31.54,-53.37,-46.89,-52.76
2022/01/19 04:56:06+0000,-38.70,-46.96,-32.47,-53.48,-47.12,-52.47